timestamp,surface_pressure_avg,surface_temp_avg,battery_voltage,lat,long
2018-03-26 00:00:00+00:00,223.9731,1.1,12.65,47.84626,-54.09684
2018-03-26 00:10:00+00:00,222.3331,1.1,12.65,47.84626,-54.09684
2018-03-26 00:20:00+00:00,221.6997,1.1,12.73,47.84626,-54.09684
2018-03-26 00:30:00+00:00,223.9497,1.1,12.65,47.84626,-54.09684
2018-03-26 00:40:00+00:00,226.2781,1.1,12.73,47.84626,-54.09684
2018-03-26 00:50:00+00:00,224.4398,1.1,12.73,47.84626,-54.09684
2018-03-26 01:00:00+00:00,222.5497,1.1,12.65,47.84626,-54.09684
2018-03-26 01:10:00+00:00,223.6014,1.1,12.65,47.84626,-54.09684
2018-03-26 01:20:00+00:00,226.6331,1.1,12.73,47.84626,-54.09684
2018-03-26 01:30:00+00:00,230.5947,1.1,12.65,47.84626,-54.09684
2018-03-26 01:40:00+00:00,233.1497,1.08,12.73,47.84626,-54.09684
2018-03-26 01:50:00+00:00,232.0247,1.0,12.73,47.84626,-54.09684
2018-03-26 02:00:00+00:00,232.9181,1.0,12.65,47.84626,-54.09684
2018-03-26 02:10:00+00:00,237.6131,1.0,12.65,47.84626,-54.09684
2018-03-26 02:20:00+00:00,241.9464,1.0,12.65,47.84626,-54.09684
2018-03-26 02:30:00+00:00,243.7847,1.0,12.65,47.84626,-54.09684
2018-03-26 02:40:00+00:00,245.8047,0.97,12.73,47.84626,-54.09684
2018-03-26 02:50:00+00:00,251.4314,0.93,12.73,47.84626,-54.09684
2018-03-26 03:00:00+00:00,256.9298,0.91,12.65,47.84626,-54.09684
2018-03-26 03:10:00+00:00,262.3998,0.9,12.65,47.84626,-54.09684
2018-03-26 03:20:00+00:00,266.6064,0.9,12.65,47.84626,-54.09684
2018-03-26 03:30:00+00:00,270.088,0.9,12.65,47.84626,-54.09684
2018-03-26 03:40:00+00:00,276.4981,0.9,12.73,47.84626,-54.09684
2018-03-26 03:50:00+00:00,283.8196,0.9,12.73,47.84626,-54.09684
2018-03-26 04:00:00+00:00,288.0913,0.9,12.65,47.84626,-54.09684
2018-03-26 04:10:00+00:00,289.5014,0.86,12.65,47.84626,-54.09684
2018-03-26 04:20:00+00:00,294.0414,0.89,12.65,47.84626,-54.09684
2018-03-26 04:30:00+00:00,296.6063,0.9,12.65,47.84626,-54.09684
2018-03-26 04:40:00+00:00,297.1396,0.9,12.73,47.84626,-54.09684
2018-03-26 04:50:00+00:00,302.5331,0.9,12.73,47.84626,-54.09684
2018-03-26 05:00:00+00:00,309.9614,0.9,12.65,47.84626,-54.09684
2018-03-26 05:10:00+00:00,309.7463,0.88,12.65,47.84626,-54.09684
2018-03-26 05:20:00+00:00,309.1331,0.9,12.65,47.84626,-54.09684
2018-03-26 05:30:00+00:00,317.1263,0.9,12.65,47.84626,-54.09684
2018-03-26 05:40:00+00:00,322.9865,0.86,12.73,47.84626,-54.09684
2018-03-26 05:50:00+00:00,320.803,0.89,12.73,47.84626,-54.09684
2018-03-26 06:00:00+00:00,323.858,0.89,12.65,47.84626,-54.09684
2018-03-26 06:10:00+00:00,329.8447,0.87,12.57,47.84626,-54.09684
2018-03-26 06:20:00+00:00,333.3962,0.8,12.65,47.84626,-54.09684
2018-03-26 06:30:00+00:00,335.418,0.84,12.65,47.84626,-54.09684
2018-03-26 06:40:00+00:00,339.4747,1.0,12.65,47.84626,-54.09684
2018-03-26 06:50:00+00:00,342.1561,1.0,12.73,47.84626,-54.09684
2018-03-26 07:00:00+00:00,343.6877,1.01,12.65,47.84626,-54.09684
2018-03-26 07:10:00+00:00,343.8997,1.01,12.57,47.84626,-54.09684
2018-03-26 07:20:00+00:00,341.9246,1.03,12.65,47.84626,-54.09684
2018-03-26 07:30:00+00:00,341.4081,1.0,12.65,47.84626,-54.09684
2018-03-26 07:40:00+00:00,339.923,1.02,12.65,47.84626,-54.09684
2018-03-26 07:50:00+00:00,335.283,1.0,12.73,47.84626,-54.09684
2018-03-26 08:00:00+00:00,329.3312,1.0,12.65,47.84626,-54.09684
2018-03-26 08:10:00+00:00,329.7762,0.9,12.57,47.84626,-54.09684
2018-03-26 08:20:00+00:00,327.8463,0.88,12.65,47.84626,-54.09684
2018-03-26 08:30:00+00:00,320.0214,0.84,12.65,47.84626,-54.09684
2018-03-26 08:40:00+00:00,314.068,0.9,12.65,47.84626,-54.09684
2018-03-26 08:50:00+00:00,309.8414,0.98,12.65,47.84626,-54.09684
2018-03-26 09:00:00+00:00,303.7864,0.95,12.65,47.84626,-54.09684
2018-03-26 09:10:00+00:00,292.2914,0.9,12.57,47.84626,-54.09684
2018-03-26 09:20:00+00:00,286.0447,0.97,12.65,47.84626,-54.09684
2018-03-26 09:30:00+00:00,282.2697,0.8,12.65,47.84626,-54.09684
2018-03-26 09:40:00+00:00,275.6147,0.7,12.65,47.84626,-54.09684
2018-03-26 09:50:00+00:00,267.4381,0.7,12.65,47.84626,-54.09684
2018-03-26 10:00:00+00:00,264.0864,0.69,12.65,47.84626,-54.09684
2018-03-26 10:10:00+00:00,259.3364,0.6,12.57,47.84626,-54.09684
2018-03-26 10:20:00+00:00,252.2381,0.6,12.65,47.84626,-54.09684
2018-03-26 10:30:00+00:00,245.8598,0.6,12.65,47.84626,-54.09684
2018-03-26 10:40:00+00:00,241.3698,0.59,12.65,47.84626,-54.09684
2018-03-26 10:50:00+00:00,235.9514,0.59,12.65,47.84626,-54.09684
2018-03-26 11:00:00+00:00,232.4514,0.6,12.65,47.84626,-54.09684
2018-03-26 11:10:00+00:00,228.1881,0.6,12.65,47.84626,-54.09684
2018-03-26 11:20:00+00:00,223.2131,0.6,12.65,47.84626,-54.09684
2018-03-26 11:30:00+00:00,220.6747,0.6,12.65,47.84626,-54.09684
2018-03-26 11:40:00+00:00,217.9597,0.6,12.65,47.84626,-54.09684
2018-03-26 11:50:00+00:00,214.4381,0.6,12.65,47.84626,-54.09684
2018-03-26 12:00:00+00:00,212.2181,0.6,12.65,47.84626,-54.09684
2018-03-26 12:10:00+00:00,211.3981,0.6,12.57,47.84626,-54.09684
2018-03-26 12:20:00+00:00,209.4949,0.61,12.65,47.84626,-54.09684
2018-03-26 12:30:00+00:00,209.7798,0.65,12.65,47.84626,-54.09684
2018-03-26 12:40:00+00:00,209.6113,0.69,12.65,47.84626,-54.09684
2018-03-26 12:50:00+00:00,207.5081,0.7,12.65,47.84626,-54.09684
2018-03-26 13:00:00+00:00,207.1347,0.7,12.65,47.84626,-54.09684
2018-03-26 13:10:00+00:00,208.3998,0.7,12.57,47.84626,-54.09684
2018-03-26 13:20:00+00:00,208.5281,0.83,12.65,47.84626,-54.09684
2018-03-26 13:30:00+00:00,207.3481,0.93,12.65,47.84626,-54.09684
2018-03-26 13:40:00+00:00,208.6981,0.97,12.65,47.84626,-54.09684
2018-03-26 13:50:00+00:00,210.7247,0.95,12.65,47.84626,-54.09684
2018-03-26 14:00:00+00:00,207.2964,0.9,12.65,47.84626,-54.09684
2018-03-26 14:10:00+00:00,203.8448,0.9,12.57,47.84626,-54.09684
2018-03-26 14:20:00+00:00,206.1497,0.9,12.65,47.84626,-54.09684
2018-03-26 14:30:00+00:00,210.0681,0.9,12.65,47.84626,-54.09684
2018-03-26 14:40:00+00:00,210.3831,0.9,12.65,47.84626,-54.09684
2018-03-26 14:50:00+00:00,209.9965,0.9,12.73,47.84626,-54.09684
2018-03-26 15:00:00+00:00,211.7015,0.9,12.65,47.84626,-54.09684
2018-03-26 15:10:00+00:00,214.5447,0.9,12.57,47.84626,-54.09684
2018-03-26 15:20:00+00:00,216.5298,0.9,12.65,47.84626,-54.09684
2018-03-26 15:30:00+00:00,220.5781,0.88,12.65,47.84626,-54.09684
2018-03-26 15:40:00+00:00,225.8698,0.89,12.65,47.84626,-54.09684
2018-03-26 15:50:00+00:00,230.1931,1.08,12.73,47.84626,-54.09684
2018-03-26 16:00:00+00:00,235.3548,1.02,12.65,47.84626,-54.09684
2018-03-26 16:10:00+00:00,242.8631,1.1,12.65,47.84626,-54.09684
2018-03-26 16:20:00+00:00,249.4664,1.05,12.65,47.84626,-54.09684
2018-03-26 16:30:00+00:00,250.623,1.19,12.65,47.84626,-54.09684
2018-03-26 16:40:00+00:00,252.9914,1.2,12.73,47.84626,-54.09684
2018-03-26 16:50:00+00:00,258.5614,1.2,12.73,47.84626,-54.09684
2018-03-26 17:00:00+00:00,264.5331,1.2,12.65,47.84626,-54.09684
2018-03-26 17:10:00+00:00,265.8098,1.2,12.65,47.84626,-54.09684
2018-03-26 17:20:00+00:00,268.9181,1.21,12.65,47.84626,-54.09684
2018-03-26 17:30:00+00:00,274.2147,1.22,12.65,47.84626,-54.09684
2018-03-26 17:40:00+00:00,277.8347,1.2,12.73,47.84626,-54.09684
2018-03-26 17:50:00+00:00,277.3914,1.21,12.73,47.84626,-54.09684
2018-03-26 18:00:00+00:00,280.973,1.27,12.65,47.84626,-54.09684
2018-03-26 18:10:00+00:00,283.813,1.3,12.65,47.84626,-54.09684
2018-03-26 18:20:00+00:00,281.9197,1.3,12.65,47.84626,-54.09684
2018-03-26 18:30:00+00:00,279.6681,1.3,12.65,47.84626,-54.09684
2018-03-26 18:40:00+00:00,286.2714,1.34,12.73,47.84626,-54.09684
2018-03-26 18:50:00+00:00,291.2997,1.4,12.73,47.84626,-54.09684
2018-03-26 19:00:00+00:00,291.2964,1.43,12.65,47.84626,-54.09684
2018-03-26 19:10:00+00:00,290.6064,1.46,12.65,47.84626,-54.09684
2018-03-26 19:20:00+00:00,296.108,1.48,12.73,47.84626,-54.09684
2018-03-26 19:30:00+00:00,298.0781,1.5,12.73,47.84626,-54.09684
2018-03-26 19:40:00+00:00,296.8597,1.5,12.73,47.84626,-54.09684
2018-03-26 19:50:00+00:00,298.458,1.5,12.73,47.84626,-54.09684
2018-03-26 20:00:00+00:00,299.7964,1.43,12.65,47.84626,-54.09684
2018-03-26 20:10:00+00:00,296.913,1.4,12.65,47.84626,-54.09684
2018-03-26 20:20:00+00:00,293.2847,1.4,12.73,47.84626,-54.09684
2018-03-26 20:30:00+00:00,292.3147,1.4,12.73,47.84626,-54.09684
2018-03-26 20:40:00+00:00,287.3997,1.39,12.73,47.84626,-54.09684
2018-03-26 20:50:00+00:00,279.4963,1.39,12.73,47.84626,-54.09684
2018-03-26 21:00:00+00:00,276.668,1.4,12.65,47.84626,-54.09684
2018-03-26 21:10:00+00:00,272.1648,1.38,12.65,47.84626,-54.09684
2018-03-26 21:20:00+00:00,263.5198,1.4,12.73,47.84626,-54.09684
2018-03-26 21:30:00+00:00,258.1864,1.4,12.73,47.84626,-54.09684
2018-03-26 21:40:00+00:00,258.8314,1.39,12.73,47.84626,-54.09684
2018-03-26 21:50:00+00:00,251.2714,1.4,12.73,47.84626,-54.09684
2018-03-26 22:00:00+00:00,242.8231,1.4,12.65,47.84626,-54.09684
2018-03-26 22:10:00+00:00,240.6313,1.4,12.65,47.84626,-54.09684
2018-03-26 22:20:00+00:00,240.2331,1.4,12.73,47.84626,-54.09684
2018-03-26 22:30:00+00:00,232.4831,1.4,12.73,47.84626,-54.09684
2018-03-26 22:40:00+00:00,227.0314,1.47,12.73,47.84626,-54.09684
2018-03-26 22:50:00+00:00,226.4082,1.47,12.73,47.84626,-54.09684
2018-03-26 23:00:00+00:00,224.0247,1.47,12.65,47.84626,-54.09684
2018-03-26 23:10:00+00:00,218.4081,1.46,12.65,47.84626,-54.09684
2018-03-26 23:20:00+00:00,217.3881,1.47,12.65,47.84626,-54.09684
2018-03-26 23:30:00+00:00,219.1631,1.49,12.65,47.84626,-54.09684
2018-03-26 23:40:00+00:00,214.3181,1.49,12.73,47.84626,-54.09684
2018-03-26 23:50:00+00:00,208.9131,1.49,12.73,47.84626,-54.09684
